When you browse on this site, cookies collect data to enhance your experience and personalize the content and advertising you see.
Visit our Privacy Policy to learn more. By continuing to use the site, you agree to this use of cookies and data.
  • In Österreich
  • Länderverzeichnis
  • Für 7 Tage
  • Wassertemperatur
  • Satellitenkarten
  • Wetterkarte
  • News
  • Widgets
  • user-avatar
    Anmelden

    Stündliche Wetter Towson

    Heute, 19 Februar, Dienstag

    Zeit Temperatur Niederschläge Wind Luftdruck Luftfeuchtigkeit
    00:00 -5°C° 0 mm 5 m/S 762 mmHg 63%
    01:00 -4°C° 0 mm 3 m/S 762 mmHg 65%
    02:00 -4°C° 0 mm 3 m/S 763 mmHg 65%
    03:00 -4°C° 0 mm 4 m/S 763 mmHg 65%
    04:00 -5°C° 0 mm 4 m/S 764 mmHg 65%
    05:00 -5°C° 0 mm 4 m/S 765 mmHg 63%
    06:00 -5°C° 0 mm 4 m/S 765 mmHg 62%
    07:00 -4°C° 0 mm 2 m/S 766 mmHg 58%
    08:00 -5°C° 0 mm 3 m/S 766 mmHg 51%
    09:00 -4°C° 0 mm 3 m/S 767 mmHg 44%
    10:00 -3°C° 0 mm 4 m/S 767 mmHg 38%
    11:00 -2°C° 0 mm 4 m/S 767 mmHg 35%
    12:00 -1°C° 0 mm 4 m/S 767 mmHg 32%
    13:00 0°C° 0 mm 4 m/S 767 mmHg 29%
    14:00 +1°C° 0 mm 3 m/S 766 mmHg 30%
    15:00 +1°C° 0 mm 3 m/S 766 mmHg 31%
    16:00 +2°C° 0 mm 3 m/S 766 mmHg 32%
    17:00 +1°C° 0 mm 3 m/S 766 mmHg 36%
    18:00 0°C° 0 mm 3 m/S 766 mmHg 40%
    19:00 -1°C° 0 mm 3 m/S 766 mmHg 43%
    20:00 -1°C° 0 mm 2 m/S 767 mmHg 44%
    21:00 +1°C° 0 mm 1 m/S 767 mmHg 45%
    22:00 0°C° 0 mm 0 m/S 767 mmHg 46%
    23:00 0°C° 0 mm 0 m/S 767 mmHg 46%

    Morgen, 20 Februar, Mittwoch

    Zeit Temperatur Niederschläge Wind Luftdruck Luftfeuchtigkeit
    00:00 +1°C° 0 mm 1 m/S 767 mmHg 46%
    01:00 +1°C° 0 mm 1 m/S 767 mmHg 46%
    02:00 +1°C° 0 mm 1 m/S 766 mmHg 46%
    03:00 -1°C° 0 mm 2 m/S 766 mmHg 46%
    04:00 -2°C° 0 mm 2 m/S 765 mmHg 46%
    05:00 -2°C° 0 mm 2 m/S 765 mmHg 47%
    06:00 -2°C° 0 mm 2 m/S 765 mmHg 47%
    07:00 -2°C° 0 mm 2 m/S 765 mmHg 48%
    08:00 -2°C° 0.7 mm 2 m/S 765 mmHg 61%
    09:00 -4°C° 0.7 mm 3 m/S 765 mmHg 74%
    10:00 -4°C° 0.7 mm 3 m/S 765 mmHg 88%
    11:00 -4°C° 1.7 mm 4 m/S 764 mmHg 90%
    12:00 -4°C° 1.7 mm 4 m/S 764 mmHg 93%
    13:00 -5°C° 1.7 mm 5 m/S 763 mmHg 95%
    14:00 -3°C° 4.4 mm 4 m/S 762 mmHg 96%
    15:00 -3°C° 4.4 mm 4 m/S 761 mmHg 96%
    16:00 -2°C° 4.4 mm 4 m/S 760 mmHg 97%
    17:00 -2°C° 2.6 mm 4 m/S 759 mmHg 98%
    18:00 -2°C° 2.6 mm 5 m/S 759 mmHg 99%
    19:00 -1°C° 2.6 mm 5 m/S 758 mmHg 99%
    20:00 -1°C° 0.5 mm 4 m/S 757 mmHg 99%
    21:00 -1°C° 0.5 mm 4 m/S 755 mmHg 99%
    22:00 +1°C° 0.5 mm 3 m/S 754 mmHg 99%
    23:00 +1°C° 1.3 mm 3 m/S 753 mmHg 99%

    übermorgen, 21 Februar, Donnerstag

    Zeit Temperatur Niederschläge Wind Luftdruck Luftfeuchtigkeit
    00:00 +2°C° 1.3 mm 2 m/S 752 mmHg 99%
    01:00 +2°C° 1.3 mm 2 m/S 751 mmHg 99%
    02:00 +3°C° 0.2 mm 2 m/S 751 mmHg 99%
    03:00 +2°C° 0.2 mm 3 m/S 750 mmHg 99%
    04:00 +2°C° 0.2 mm 3 m/S 749 mmHg 99%
    05:00 +2°C° 0 mm 3 m/S 749 mmHg 99%
    06:00 +2°C° 0 mm 3 m/S 749 mmHg 99%
    07:00 +2°C° 0 mm 3 m/S 749 mmHg 99%
    08:00 +3°C° 0 mm 4 m/S 750 mmHg 99%
    09:00 +3°C° 0 mm 4 m/S 751 mmHg 99%
    10:00 +3°C° 0 mm 4 m/S 751 mmHg 99%
    11:00 +3°C° 0 mm 5 m/S 752 mmHg 95%
    12:00 +3°C° 0 mm 5 m/S 752 mmHg 90%
    13:00 +4°C° 0 mm 6 m/S 752 mmHg 85%
    14:00 +5°C° 0 mm 5 m/S 752 mmHg 83%
    15:00 +5°C° 0 mm 5 m/S 752 mmHg 81%
    16:00 +5°C° 0 mm 5 m/S 752 mmHg 78%
    17:00 +4°C° 0 mm 4 m/S 753 mmHg 81%
    18:00 +3°C° 0 mm 4 m/S 754 mmHg 83%
    19:00 +3°C° 0 mm 3 m/S 755 mmHg 86%
    20:00 +2°C° 0 mm 3 m/S 755 mmHg 83%
    21:00 +1°C° 0 mm 4 m/S 756 mmHg 81%
    22:00 +1°C° 0 mm 4 m/S 757 mmHg 79%
    23:00 +1°C° 0 mm 4 m/S 757 mmHg 79%

    22 Februar, Freitag

    Zeit Temperatur Niederschläge Wind Luftdruck Luftfeuchtigkeit
    00:00 +1°C° 0 mm 3 m/S 758 mmHg 80%
    01:00 +1°C° 0 mm 3 m/S 758 mmHg 80%
    02:00 +1°C° 0 mm 3 m/S 758 mmHg 80%
    03:00 +1°C° 0 mm 3 m/S 758 mmHg 80%
    04:00 0°C° 0 mm 3 m/S 759 mmHg 80%
    05:00 0°C° 0 mm 3 m/S 759 mmHg 80%
    06:00 -1°C° 0 mm 2 m/S 760 mmHg 81%
    07:00 -1°C° 0 mm 2 m/S 761 mmHg 82%
    08:00 +1°C° 0 mm 2 m/S 761 mmHg 78%
    09:00 +1°C° 0 mm 3 m/S 762 mmHg 74%
    10:00 +2°C° 0 mm 3 m/S 762 mmHg 70%
    11:00 +4°C° 0 mm 2 m/S 762 mmHg 66%
    12:00 +5°C° 0 mm 2 m/S 762 mmHg 63%
    13:00 +7°C° 0 mm 2 m/S 762 mmHg 59%
    14:00 +7°C° 0 mm 2 m/S 762 mmHg 61%
    15:00 +7°C° 0 mm 2 m/S 762 mmHg 62%
    16:00 +7°C° 0 mm 2 m/S 762 mmHg 64%
    17:00 +6°C° 0 mm 2 m/S 762 mmHg 68%
    18:00 +6°C° 0 mm 1 m/S 763 mmHg 72%
    19:00 +5°C° 0 mm 1 m/S 763 mmHg 75%
    20:00 +5°C° 0 mm 1 m/S 763 mmHg 76%
    21:00 +4°C° 0 mm 1 m/S 763 mmHg 77%
    22:00 +3°C° 0 mm 0 m/S 763 mmHg 77%
    23:00 +3°C° 0 mm 0 m/S 763 mmHg 77%

    23 Februar, Samstag

    Zeit Temperatur Niederschläge Wind Luftdruck Luftfeuchtigkeit
    00:00 +3°C° 0 mm 0 m/S 763 mmHg 78%
    01:00 +2°C° 0 mm 0 m/S 763 mmHg 78%
    02:00 +2°C° 0 mm 0 m/S 762 mmHg 78%
    03:00 +2°C° 0 mm 0 m/S 762 mmHg 78%
    04:00 +3°C° 0 mm 1 m/S 762 mmHg 79%
    05:00 +3°C° 0 mm 1 m/S 762 mmHg 79%
    06:00 +3°C° 0 mm 1 m/S 762 mmHg 80%
    07:00 +3°C° 0 mm 1 m/S 762 mmHg 81%
    08:00 +3°C° 0.1 mm 2 m/S 762 mmHg 80%
    09:00 +4°C° 0.1 mm 2 m/S 762 mmHg 78%
    10:00 +4°C° 0.1 mm 2 m/S 762 mmHg 77%
    11:00 +5°C° 0.1 mm 2 m/S 761 mmHg 77%
    12:00 +4°C° 0.1 mm 3 m/S 761 mmHg 77%
    13:00 +5°C° 0.1 mm 3 m/S 760 mmHg 76%
    14:00 +5°C° 0 mm 3 m/S 759 mmHg 78%
    15:00 +5°C° 0 mm 3 m/S 758 mmHg 79%
    16:00 +5°C° 0 mm 4 m/S 757 mmHg 81%
    17:00 +4°C° 0.1 mm 4 m/S 757 mmHg 84%
    18:00 +4°C° 0.1 mm 3 m/S 757 mmHg 87%
    19:00 +3°C° 0.1 mm 3 m/S 756 mmHg 90%
    20:00 +4°C° 0.4 mm 3 m/S 755 mmHg 92%
    21:00 +4°C° 0.4 mm 3 m/S 755 mmHg 94%
    22:00 +4°C° 0.4 mm 3 m/S 754 mmHg 95%
    23:00 +4°C° 2 mm 3 m/S 752 mmHg 96%

    24 Februar, Sonntag

    Zeit Temperatur Niederschläge Wind Luftdruck Luftfeuchtigkeit
    00:00 +4°C° 2 mm 3 m/S 751 mmHg 97%
    01:00 +6°C° 2 mm 2 m/S 750 mmHg 98%
    02:00 +6°C° 1.5 mm 2 m/S 749 mmHg 98%
    03:00 +6°C° 1.5 mm 2 m/S 748 mmHg 98%
    04:00 +7°C° 1.5 mm 2 m/S 747 mmHg 98%
    05:00 +8°C° 0.6 mm 3 m/S 746 mmHg 98%
    06:00 +8°C° 0.6 mm 3 m/S 745 mmHg 97%
    07:00 +8°C° 0.6 mm 4 m/S 744 mmHg 97%
    08:00 +10°C° 0 mm 5 m/S 743 mmHg 94%
    09:00 +13°C° 0 mm 6 m/S 743 mmHg 91%
    10:00 +15°C° 0 mm 7 m/S 742 mmHg 88%
    11:00 +17°C° 0.1 mm 7 m/S 741 mmHg 78%
    12:00 +20°C° 0.1 mm 8 m/S 740 mmHg 68%
    13:00 +22°C° 0.1 mm 8 m/S 739 mmHg 57%
    14:00 +21°C° 0 mm 8 m/S 739 mmHg 53%
    15:00 +20°C° 0 mm 7 m/S 739 mmHg 48%
    16:00 +18°C° 0 mm 7 m/S 739 mmHg 44%
    17:00 +16°C° 0 mm 7 m/S 740 mmHg 49%
    18:00 +12°C° 0 mm 7 m/S 741 mmHg 55%
    19:00 +10°C° 0 mm 7 m/S 741 mmHg 61%
    20:00 +9°C° 0 mm 8 m/S 742 mmHg 60%
    21:00 +7°C° 0 mm 8 m/S 742 mmHg 60%
    22:00 +6°C° 0 mm 8 m/S 742 mmHg 59%
    23:00 +6°C° 0 mm 8 m/S 743 mmHg 59%
    Mehr zeigen